Regional Weather Roundup
Issued by NWS

Home | Current Version | Previous Version | Graphics & Text | Print | Product List | Glossary Off
Versions: 1 2 3 4 5 6 7 8 9 10 11 12 13 14 15 16 17 18 19 20 21 22 23 24 25 26 27 28 29 30 31 32 33 34 35 36 37 38 39 40 41 42 43 44 45 46 47 48 49 50

000
ASUS43 KTOP 282308
RWRKS

WEATHER ROUNDUP FOR KANSAS
NATIONAL WEATHER SERVICE GOODLAND KS
600 PM CDT FRI AUG 28 2015

NOTE:  "FAIR" INDICATES FEW OR NO CLOUDS BELOW 12,000 FEET WITH NO
SIGNIFICANT WEATHER AND/OR OBSTRUCTIONS TO VISIBILITY.

KSZ001>006-013>018-027>032-041>047-290000-
NORTHWEST KANSAS

CITY           SKY/WX    TMP DP  RH WIND       PRES   REMARKS
GOODLAND       SUNNY     90  41  18 N16G23    30.04S
HAYS           SUNNY     90  59  35 N15G22    29.93R
HILL CITY      SUNNY     89  60  37 N13       29.96R
RUSSELL        SUNNY     88  62  41 N17       29.90S
$$

KSZ061>065-074>080-084>089-290000-
SOUTHWEST KANSAS

CITY           SKY/WX    TMP DP  RH WIND       PRES   REMARKS
DODGE CITY     SUNNY     92  50  23 NW8       29.95F
ELKHART          N/A     90  56  31 N7          N/A
GARDEN CITY    MOSUNNY   88  56  33 N3        29.97S
GREAT BEND     SUNNY     91  59  33 N14G22    29.89S
LIBERAL        MOSUNNY   90  55  31 CALM      30.00S
PRATT          MOSUNNY   90  54  29 CALM      29.93S
$$

KSZ066>073-081>083-090>101-290000-
SOUTHEAST KANSAS

CITY           SKY/WX    TMP DP  RH WIND       PRES   REMARKS
CHANUTE        CLOUDY    76  68  76 S8        29.93R
COFFEYVILLE    CLOUDY    78  71  79 S8        29.92F
HUTCHINSON     MOSUNNY   91  63  39 N10       29.87S
MEDICINE LODGE   N/A     92  64  39 NW6       29.89S
NEWTON         CLOUDY    88  66  48 W8G21     29.90R
PARSONS        PTSUNNY   78  71  79 VRB5      29.93F
WICHITA INTL   MOSUNNY   89  70  53 SW7       29.86F
WICHITA JABRA  MOSUNNY   84  70  62 S15       29.87S
WICHITA MCCONL SUNNY     86  66  51 SE14      29.88S
WINFIELD       SUNNY     83  68  60 SE16      29.90F
$$

KSZ007>012-019>026-033>040-048>060-102>105-290000-
NORTHEAST KANSAS

CITY           SKY/WX    TMP DP  RH WIND       PRES   REMARKS
CONCORDIA      CLOUDY    77  68  73 N12       29.90S
EMPORIA        PTSUNNY   78  67  68 S20       29.87S
LAWRENCE       MOSUNNY   75  66  73 S10       29.89R
MANHATTAN      MOSUNNY   86  69  56 VRB5      29.86R
MARYSVILLE     CLOUDY   N/A N/A N/A N13G20    29.88R
OLATHE IND     MOSUNNY   74  66  76 S13       29.91F
OLATHE EXE     CLOUDY    73  66  78 S10       29.92R
SALINA         MOSUNNY   86  68  54 NW14      29.88S
TOPEKA BILLARD LGT RAIN  78  69  73 S13       29.88S
TOPEKA FORBES  CLOUDY    78  67  68 S13       29.88S
$$


USA.gov is the U.S. government's official web portal to all federal, state and local government web resources and services.